This is the latest recevied weather packets stored in our database for station/object KC4BAM. If no packets are shown the sender has not sent any weather packets the latest 10 day(s).
| Time | Temp. | Humidity | Pressure | Rain* | Wind** | Luminosity | Snow |
|---|---|---|---|---|---|---|---|
| 1778029790 | 17.22° C | 88% | 997.8 hPa | 0 mm | - | 0 W/m² | - |
| 1778029490 | 17.22° C | 88% | 997.7 hPa | 0 mm | - | 0 W/m² | - |
| 1778029186 | 17.22° C | 87% | 997.8 hPa | 0 mm | - | 0 W/m² | - |
| 1778028884 | 17.22° C | 87% | 997.6 hPa | 0 mm | - | 0 W/m² | - |
| 1778028584 | 17.78° C | 87% | 998 hPa | 0 mm | - | 0 W/m² | - |
| 1778028283 | 17.78° C | 86% | 998.1 hPa | 0 mm | - | 0 W/m² | - |
| 1778027978 | 17.78° C | 86% | 998.2 hPa | 0 mm | - | 0 W/m² | - |
| 1778027675 | 17.78° C | 86% | 998.1 hPa | 0 mm | - | 1 W/m² | - |
| 1778027371 | 17.22° C | 86% | 998.3 hPa | 0 mm | - | 1 W/m² | - |
| 1778027067 | 17.22° C | 87% | 998.2 hPa | 0 mm | - | 1 W/m² | - |
| 1778026763 | 17.22° C | 87% | 998.4 hPa | 0 mm | - | 1 W/m² | - |
| 1778026460 | 17.22° C | 87% | 998.4 hPa | 0 mm | - | 1 W/m² | - |
| 1778026157 | 17.22° C | 87% | 998.2 hPa | 0 mm | - | 2 W/m² | - |
| 1778025855 | 17.22° C | 87% | 998.1 hPa | 0 mm | - | 2 W/m² | - |
| 1778025551 | 17.22° C | 87% | 998.2 hPa | 0 mm | - | 3 W/m² | - |
| 1778025250 | 17.22° C | 87% | 998.1 hPa | 0 mm | - | 7 W/m² | - |
| 1778024946 | 17.22° C | 87% | 998.2 hPa | 0 mm | - | 8 W/m² | - |
| 1778024644 | 17.22° C | 87% | 998.4 hPa | 0 mm | - | 7 W/m² | - |
| 1778024340 | 17.22° C | 87% | 998.4 hPa | 0 mm | - | 8 W/m² | - |
| 1778024038 | 17.22° C | 86% | 998.4 hPa | 0 mm | - | 9 W/m² | - |
| 1778023735 | 17.22° C | 86% | 998.5 hPa | 0 mm | - | 12 W/m² | - |
| 1778023433 | 17.22° C | 86% | 998.8 hPa | 0 mm | - | 19 W/m² | - |
| 1778023130 | 17.22° C | 84% | 998.7 hPa | 0 mm | - | 7 W/m² | - |
| 1778022827 | 17.22° C | 83% | 998.6 hPa | 3.05 mm | - | 13 W/m² | - |
| 1778022525 | 17.78° C | 83% | 998.5 hPa | 3.05 mm | - | 14 W/m² | - |
* Rain latest hour (hover to see other rain measurements)
** Current wind speed in m/s (hover to see current wind gust speed)